Regional Weather Roundup
Issued by NWS

Home | Current Version | Previous Version | Text Only | Print | Product List | Glossary On
Versions: 1 2 3 4 5 6 7 8 9 10 11 12 13 14 15 16 17 18 19 20 21 22 23 24 25 26 27 28 29 30 31 32 33 34 35 36 37 38 39 40 41 42 43 44 45 46 47 48 49 50
000
ASUS43 KOAX 111602
RWRNE

WEATHER ROUNDUP FOR NEBRASKA
NATIONAL WEATHER SERVICE OMAHA NE
1100 AM CDT FRI JUL 11 2014

NOTES: SATELLITE DATA IS BEING USED TO AUGMENT CLOUD COVER ABOVE
       12000 FEET.
       "FAIR" INDICATES FEW OR NO CLOUDS BELOW 12,000 FEET WITH NO
       SIGNIFICANT WEATHER AND/OR OBSTRUCTIONS TO VISIBILITY.

  * THESE STATIONS DO NOT REPORT WEATHER SUCH AS RAIN...SNOW OR FOG.

NEZ001>004-019>022-054>056-111700-
NEBRASKA PANHANDLE

CITY           SKY/WX    TMP DP  RH WIND       PRES   REMARKS
SCOTTSBLUFF    PTSUNNY   78  63  59 CALM      30.06S
ALLIANCE       MOSUNNY   79  65  62 SW9       30.06R
CHADRON        PTSUNNY   79  65  62 SW3       30.01R
KIMBALL        SUNNY     76  61  60 W3        30.11S
SIDNEY         MOSUNNY   76  63  64 SW3       30.09S
$$

NEZ057>060-069>072-079>082-111700-
SOUTHWEST NEBRASKA

CITY           SKY/WX    TMP DP  RH WIND       PRES   REMARKS
NORTH PLATTE   CLOUDY    73  69  87 N3        30.03R
IMPERIAL       PTSUNNY   82  66  58 SE8       30.00S
LEXINGTON      CLOUDY    75  70  84 SE7       29.97S
MCCOOK         MOSUNNY   78  69  73 S13       29.97F
OGALLALA       PTSUNNY   71  65  82 CALM      30.03S
$$

NEZ005>010-023>029-035>040-094-111700-
NORTH CENTRAL NEBRASKA

CITY           SKY/WX    TMP DP  RH WIND       PRES   REMARKS
VALENTINE      MOSUNNY   84  65  52 NW6       29.98S
AINSWORTH      MOSUNNY   78  64  61 CALM      29.98R
BROKEN BOW     CLOUDY    73  70  90 SE5       29.99S
O`NEILL        CLOUDY    76  67  75 S9        29.97S
ORD            CLOUDY    72  69  90 E7        29.94F
THEDFORD       PTSUNNY   81  63  53 CALM      30.01F
$$

NEZ041-046>049-061>064-073>077-083>087-111700-
SOUTH CENTRAL NEBRASKA

CITY           SKY/WX    TMP DP  RH WIND       PRES   REMARKS
GRAND ISLAND   CLOUDY    76  69  79 SE15      29.95F
AURORA         PTSUNNY   78  72  82 S8        29.99S
HASTINGS       PTSUNNY   76  67  73 S9        29.98F
HEBRON         MOSUNNY   78  68  72 S8G16     29.99F
HOLDREGE       PTSUNNY   77  68  72 S13       29.98S
KEARNEY *      PTSUNNY   75  70  83 S13       29.98S
YORK           PTSUNNY   75  72  88 S12       29.99R
$$

NEZ011>018-030>034-042>045-111700-
NORTHEAST NEBRASKA

CITY           SKY/WX    TMP DP  RH WIND       PRES   REMARKS
NORFOLK        CLOUDY    72  67  84 S12       29.98R
ALBION         PTSUNNY   73  67  82 S8        29.99S
BLAIR          CLOUDY    71  65  80 SE10      29.98S
FREMONT        CLOUDY    74  67  80 SE13      29.97S
TEKAMAH        CLOUDY    72  67  84 SE12      29.95F
WAYNE          CLOUDY    73  69  88 S12       29.97R
$$

NEZ050>053-065>068-078-088>093-111700-
SOUTHEAST NEBRASKA

CITY           SKY/WX    TMP DP  RH WIND       PRES   REMARKS
LINCOLN        PTSUNNY   77  68  73 S15       29.98F
OMAHA EPPLEY   CLOUDY    72  66  81 SE16      29.98F
BEATRICE       PTSUNNY   76  68  76 S10       30.00S
FALLS CITY     MOSUNNY   80  69  69 S14       30.02R
NEBRASKA CITY  LGT RAIN  73  69  86 S10       30.01F
PLATTSMOUTH    CLOUDY    74  67  78 SE9       30.00F
$$

NEZ044-045-051>053-067-111700-
OMAHA AREA

CITY           SKY/WX    TMP DP  RH WIND       PRES   REMARKS
OMAHA EPPLEY   CLOUDY    72  66  81 SE16      29.98F
BLAIR          CLOUDY    71  65  80 SE10      29.98S
FREMONT        CLOUDY    74  67  80 SE13      29.97S
MILLARD        CLOUDY    73  68  82 SE12      29.98S
OFFUTT AFB     CLOUDY    74  72  93 SE13      29.99F
PLATTSMOUTH    CLOUDY    74  67  78 SE9       30.00F
WAHOO          PTSUNNY   74  67  78 SE10      29.98R
$$



USA.gov is the U.S. government's official web portal to all federal, state and local government web resources and services.